Weather Roundup
Issued by NWS

Home | Current Version | Previous Version | Graphics & Text | Print | Product List | Glossary Off
Versions: 1 2 3 4 5 6 7 8 9 10 11 12 13 14 15 16 17 18 19 20 21 22 23 24 25 26 27 28 29 30 31 32 33 34 35 36 37 38 39 40 41 42 43 44 45 46 47 48 49 50

491
NZUS93 KARX 242010
HRRWXR

CURRENT HOURLY OBSERVATIONS ACROSS
MUCH OF THE UPPER MISSISSIPPI VALLEY
NATIONAL WEATHER SERVICE LA CROSSE WI
200 PM CST FRI FEB 24 2017


...SOUTHEAST MINNESOTA...


CITY           SKY/WX    TMP DP  RH WIND       PRES   REMARKS
ROCHESTER      CLOUDY    25  21  85 N29G38    29.68S FOG     WCI   8
ROCHESTER/MAYO CLOUDY    26  24  94 N14G21    29.70S WCI  14
WINONA         CLOUDY    30  25  80 N6        29.71R WCI  24
AUSTIN           N/A     25  21  86 N15G21    29.70R WCI  12
ALBERT LEA     LGT SNOW  25  21  86 N14G23    29.72S VSB 3/4 WCI  13
DODGE CENTER   CLOUDY    25  21  86 N21       29.70S WCI  10
PRESTON        CLOUDY    26  22  84 N16G23    29.65S WCI  13
OWATONNA       CLOUDY    25  19  80 N22       29.75S WCI  10
FARIBAULT      LGT SNOW  27  19  74 N14G21    29.78S WCI  15
$$

...ELSEWHERE IN MINNESOTA...


CITY           SKY/WX    TMP DP  RH WIND       PRES   REMARKS
MINNEAPOLIS    CLOUDY    26  14  60 N22G29    29.82R WCI  12
INTNL FALLS    MOSUNNY   18   4  54 VRB7      29.98F WCI   9
DULUTH         MOSUNNY   21  11  65 N13       29.85F WCI   9
RED WING       LGT SNOW  27  19  74 N6        29.76S WCI  20
REDWOOD FALLS  PTSUNNY   28  11  48 N17G29    29.88S WCI  16
MANKATO          N/A     26  17  68 N20       29.80S WCI  12
WORTHINGTON    CLOUDY    23  16  74 N31       29.82F HAZE    WCI   5
FAIRMONT       CLOUDY    24  18  77 N23G32    29.79S HAZE    WCI   9
$$

...SOUTHWEST WISCONSIN...


CITY           SKY/WX    TMP DP  RH WIND       PRES   REMARKS
LA CROSSE      MIX PCPN  31  22  69 N16G23    29.67R WCI  20
PRAIRIE DU CHI CLOUDY    31  29  92 N16G23    29.61R FOG     WCI  20
BOSCOBEL       CLOUDY    31  26  82 NE10G24   29.60R WCI  22
LONE ROCK      CLOUDY    30  26  85 N12G22    29.59R FOG     WCI  20
PLATTEVILLE    CLOUDY    31  31 100 N10       29.55R WCI  23
FORT MC COY    CLOUDY    28  24  84 NE13G26   29.65S WCI  17
CAMP DOUGLAS   FRZ DRZL  27  25  93 N9        29.62F FOG     WCI  17
MAUSTON-NEW LI CLOUDY    28  25  87 N8        29.61S FOG     WCI  20
VIROQUA        CLOUDY    28  26  94 N15       29.60R WCI  16
WIS DELLS      CLOUDY    28  26  94 NE8       29.57F FOG     WCI  20
$$

...ELSEWHERE IN WISCONSIN...


CITY           SKY/WX    TMP DP  RH WIND       PRES   REMARKS
MILWAUKEE      LGT RAIN  36  33  89 N15G25    29.48S FOG     WCI  27
MADISON        FRZ DRZL  29  27  92 NE20      29.53F FOG     WCI  16
GREEN BAY      LGT SNOW  29  27  92 N24       29.58F FOG     WCI  15
EAU CLAIRE     LGT SNOW  25  20  81 N16G23    29.72S WCI  12
BLACK RVR FLS  CLOUDY    28  23  79 NE10      29.66S WCI  19
MEDFORD        CLOUDY    23  18  80 N21G26    29.64F HAZE    WCI   8
WAUSAU         LGT SNOW  24  19  81 N8G17     29.63F WCI  15
WIS RAPIDS     FRZ RAIN  26  24  92 NE16      29.63F FOG     WCI  14
MARSHFIELD     CLOUDY    26  19  74 NE15G25   29.60F HAZE    WCI  14
RICE LAKE      LGT SNOW  23  18  80 N14G20    29.78F WCI  11
$$

...NORTHEAST IOWA...


CITY           SKY/WX    TMP DP  RH WIND       PRES   REMARKS
WATERLOO       CLOUDY    31  28  89 N20       29.63S WCI  19
DUBUQUE        CLOUDY    31  30  96 NE17      29.53R FOG     WCI  19
DECORAH        MOSUNNY   28  27  93 N15G26    29.61S FOG     WCI  17
MASON CITY     LGT SNOW  24  24 100 N26G36    29.71R VSB 1   WCI   8
CHARLES CITY   LGT RAIN  28  28 100 N20G26    29.66R WCI  15
OELWEIN        LGT RAIN  30  30 100 N20       29.61S WCI  18
$$

...ELSEWHERE IN IOWA...


CITY           SKY/WX    TMP DP  RH WIND       PRES   REMARKS
DES MOINES     FRZ DRZL  29  26  89 N16G24    29.68S FOG     WCI  17
IOWA CITY      LGT RAIN  35  32  88 N13       29.60R FOG     WCI  26
FORT DODGE     CLOUDY    25  18  74 N16G24    29.74R WCI  12
MARSHALLTOWN   FRZ RAIN  30  29  96 N20       29.63F FOG     WCI  17
CEDAR RAPIDS   LGT SNOW  32  32 100 N14       29.58R FOG     WCI  22
$$

...NORTHERN ILLINOIS...


CITY           SKY/WX    TMP DP  RH WIND       PRES   REMARKS
CHICAGO-OHARE  CLOUDY    40  37  89 N12       29.44S WCI  33
CHICAGO-MIDWAY CLOUDY    41  38  89 N9        29.44S
MOLINE         CLOUDY    41  36  82 NW8       29.53S HAZE
ROCKFORD       DRIZZLE   38  35  89 N16       29.49S FOG     WCI  29
PEORIA         CLOUDY    45  41  86 W13G24    29.54R
$$

NOTE: "FAIR" INDICATES FEW OR NO CLOUDS BELOW 12,000 FEET WITH NO
SIGNIFICANT WEATHER AND/OR OBSTRUCTIONS TO VISIBILITY. WIND
SPEEDS ARE IN MILES-PER-HOUR.




USA.gov is the U.S. government's official web portal to all federal, state and local government web resources and services.